When you browse on this site, cookies collect data to enhance your experience and personalize the content and advertising you see.
Visit our Privacy Policy to learn more. By continuing to use the site, you agree to this use of cookies and data.
  • In Netherlands
  • List of Countries
  • For 7 days
  • Water Temperature
  • Satellite Maps
  • Weather Map
  • Weather Widgets
  • user-avatar
    Login

    Hourly Weather Linz

    Today, 11 December, Tuesday

    Time Temperature Precipitation Wind Pressure Humidity
    00:00 0°C° 0.2 mm 5 mps 734 mmHg 86%
    01:00 -1°C° 0 mm 4 mps 733 mmHg 84%
    02:00 -1°C° 0.2 mm 5 mps 733 mmHg 84%
    03:00 -1°C° 0.2 mm 5 mps 733 mmHg 84%
    04:00 -1°C° 0.2 mm 5 mps 733 mmHg 84%
    05:00 -2°C° 0.3 mm 6 mps 734 mmHg 84%
    06:00 -1°C° 0.3 mm 6 mps 734 mmHg 84%
    07:00 -1°C° 0 mm 6 mps 733 mmHg 85%
    08:00 -1°C° 0.3 mm 7 mps 734 mmHg 83%
    09:00 -1°C° 0.3 mm 7 mps 734 mmHg 82%
    10:00 -1°C° 0.3 mm 7 mps 734 mmHg 81%
    11:00 0°C° 0.2 mm 7 mps 734 mmHg 80%
    12:00 0°C° 0.2 mm 7 mps 734 mmHg 78%
    13:00 0°C° 0 mm 7 mps 734 mmHg 79%
    14:00 +1°C° 0.2 mm 6 mps 734 mmHg 79%
    15:00 -1°C° 0.2 mm 6 mps 734 mmHg 80%
    16:00 -1°C° 0.2 mm 6 mps 734 mmHg 80%
    17:00 -1°C° 0.2 mm 6 mps 735 mmHg 82%
    18:00 -1°C° 0.2 mm 6 mps 735 mmHg 83%
    19:00 0°C° 0.2 mm 5 mps 735 mmHg 84%
    20:00 0°C° 0.2 mm 5 mps 735 mmHg 85%
    21:00 -1°C° 0.2 mm 5 mps 735 mmHg 86%
    22:00 -1°C° 0.2 mm 5 mps 735 mmHg 87%
    23:00 -1°C° 0.3 mm 5 mps 736 mmHg 87%

    Tomorrow, 12 December, Wednesday

    Time Temperature Precipitation Wind Pressure Humidity
    00:00 -1°C° 0.3 mm 5 mps 736 mmHg 88%
    01:00 -1°C° 0.3 mm 5 mps 736 mmHg 88%
    02:00 -1°C° 0.4 mm 5 mps 736 mmHg 89%
    03:00 -1°C° 0.4 mm 5 mps 736 mmHg 89%
    04:00 -1°C° 0.4 mm 4 mps 736 mmHg 90%
    05:00 -1°C° 0.5 mm 4 mps 736 mmHg 90%
    06:00 -1°C° 0.5 mm 4 mps 736 mmHg 91%
    07:00 -1°C° 0.5 mm 4 mps 736 mmHg 91%
    08:00 0°C° 0.4 mm 3 mps 736 mmHg 91%
    09:00 0°C° 0.4 mm 3 mps 736 mmHg 91%
    10:00 0°C° 0.4 mm 3 mps 737 mmHg 91%
    11:00 0°C° 0.2 mm 3 mps 736 mmHg 90%
    12:00 +1°C° 0.2 mm 3 mps 736 mmHg 89%
    13:00 +1°C° 0.2 mm 3 mps 736 mmHg 89%
    14:00 +2°C° 0.2 mm 2 mps 736 mmHg 90%
    15:00 +1°C° 0.2 mm 2 mps 736 mmHg 91%
    16:00 +1°C° 0.2 mm 2 mps 736 mmHg 92%
    17:00 +2°C° 0.2 mm 1 mps 737 mmHg 93%
    18:00 +1°C° 0.2 mm 1 mps 737 mmHg 93%
    19:00 0°C° 0.2 mm 1 mps 737 mmHg 94%
    20:00 0°C° 0.2 mm 1 mps 737 mmHg 94%
    21:00 0°C° 0.2 mm 1 mps 737 mmHg 93%
    22:00 0°C° 0.2 mm 1 mps 737 mmHg 93%
    23:00 0°C° 0.1 mm 1 mps 737 mmHg 93%

    Day after tomorrow, 13 December, Thursday

    Time Temperature Precipitation Wind Pressure Humidity
    00:00 0°C° 0.1 mm 1 mps 737 mmHg 92%
    01:00 -1°C° 0.1 mm 1 mps 737 mmHg 92%
    02:00 -1°C° 0 mm 1 mps 737 mmHg 92%
    03:00 -1°C° 0 mm 1 mps 736 mmHg 91%
    04:00 -4°C° 0 mm 2 mps 736 mmHg 91%
    05:00 -4°C° 0 mm 2 mps 736 mmHg 91%
    06:00 -4°C° 0 mm 2 mps 736 mmHg 91%
    07:00 -5°C° 0 mm 2 mps 735 mmHg 90%
    08:00 -4°C° 0 mm 2 mps 735 mmHg 88%
    09:00 -4°C° 0 mm 3 mps 735 mmHg 86%
    10:00 -4°C° 0 mm 3 mps 735 mmHg 84%
    11:00 -2°C° 0 mm 3 mps 735 mmHg 83%
    12:00 -1°C° 0 mm 3 mps 734 mmHg 82%
    13:00 -1°C° 0 mm 4 mps 734 mmHg 81%
    14:00 -1°C° 0 mm 3 mps 733 mmHg 84%
    15:00 -1°C° 0 mm 3 mps 733 mmHg 86%
    16:00 -2°C° 0 mm 3 mps 733 mmHg 88%
    17:00 -2°C° 0 mm 3 mps 734 mmHg 89%
    18:00 -4°C° 0 mm 3 mps 734 mmHg 89%
    19:00 -4°C° 0 mm 3 mps 734 mmHg 89%
    20:00 -3°C° 0 mm 2 mps 734 mmHg 89%
    21:00 -4°C° 0 mm 2 mps 734 mmHg 89%
    22:00 -4°C° 0 mm 2 mps 734 mmHg 89%
    23:00 -4°C° 0 mm 2 mps 734 mmHg 89%

    14 December, Friday

    Time Temperature Precipitation Wind Pressure Humidity
    00:00 -4°C° 0 mm 2 mps 734 mmHg 90%
    01:00 -4°C° 0 mm 2 mps 734 mmHg 90%
    02:00 -4°C° 0 mm 2 mps 734 mmHg 90%
    03:00 -4°C° 0 mm 2 mps 734 mmHg 90%
    04:00 -4°C° 0 mm 2 mps 734 mmHg 90%
    05:00 -4°C° 0 mm 2 mps 734 mmHg 90%
    06:00 -4°C° 0 mm 2 mps 734 mmHg 90%
    07:00 -4°C° 0 mm 2 mps 734 mmHg 90%
    08:00 -3°C° 0 mm 2 mps 735 mmHg 88%
    09:00 -3°C° 0 mm 2 mps 735 mmHg 85%
    10:00 -2°C° 0 mm 2 mps 735 mmHg 83%
    11:00 -1°C° 0 mm 2 mps 735 mmHg 82%
    12:00 0°C° 0 mm 3 mps 735 mmHg 81%
    13:00 0°C° 0 mm 3 mps 735 mmHg 80%
    14:00 +1°C° 0 mm 2 mps 735 mmHg 83%
    15:00 -1°C° 0 mm 2 mps 735 mmHg 86%
    16:00 -2°C° 0 mm 2 mps 735 mmHg 89%
    17:00 -2°C° 0 mm 2 mps 736 mmHg 90%
    18:00 -3°C° 0 mm 2 mps 736 mmHg 90%
    19:00 -3°C° 0 mm 2 mps 736 mmHg 91%
    20:00 -4°C° 0 mm 2 mps 737 mmHg 91%
    21:00 -2°C° 0 mm 1 mps 737 mmHg 91%
    22:00 -2°C° 0 mm 1 mps 737 mmHg 91%
    23:00 -2°C° 0 mm 1 mps 737 mmHg 90%

    15 December, Saturday

    Time Temperature Precipitation Wind Pressure Humidity
    00:00 -3°C° 0 mm 1 mps 738 mmHg 90%
    01:00 -3°C° 0 mm 1 mps 738 mmHg 90%
    02:00 -3°C° 0 mm 1 mps 738 mmHg 90%
    03:00 -4°C° 0 mm 0 mps 738 mmHg 90%
    04:00 -4°C° 0 mm 0 mps 739 mmHg 90%
    05:00 -3°C° 0 mm 0 mps 739 mmHg 90%
    06:00 -3°C° 0 mm 0 mps 739 mmHg 90%
    07:00 -3°C° 0 mm 0 mps 740 mmHg 90%
    08:00 -3°C° 0 mm 0 mps 740 mmHg 89%
    09:00 -2°C° 0 mm 0 mps 740 mmHg 87%
    10:00 -1°C° 0 mm 0 mps 741 mmHg 85%
    11:00 -1°C° 0 mm 0 mps 741 mmHg 84%
    12:00 +1°C° 0 mm 1 mps 741 mmHg 82%
    13:00 +1°C° 0 mm 1 mps 740 mmHg 81%
    14:00 +1°C° 0 mm 1 mps 741 mmHg 83%
    15:00 -1°C° 0 mm 0 mps 741 mmHg 86%
    16:00 -2°C° 0 mm 0 mps 741 mmHg 89%
    17:00 -2°C° 0 mm 0 mps 741 mmHg 90%
    18:00 -2°C° 0 mm 1 mps 742 mmHg 91%
    19:00 -3°C° 0 mm 1 mps 742 mmHg 92%
    20:00 -3°C° 0 mm 1 mps 742 mmHg 91%
    21:00 -3°C° 0 mm 1 mps 742 mmHg 90%
    22:00 -3°C° 0 mm 1 mps 742 mmHg 90%
    23:00 -3°C° 0 mm 1 mps 742 mmHg 89%

    16 December, Sunday

    Time Temperature Precipitation Wind Pressure Humidity
    00:00 -4°C° 0 mm 1 mps 742 mmHg 87%
    01:00 -4°C° 0 mm 1 mps 742 mmHg 86%
    02:00 -4°C° 0 mm 1 mps 741 mmHg 84%
    03:00 -4°C° 0 mm 1 mps 741 mmHg 83%
    04:00 -4°C° 0 mm 1 mps 741 mmHg 81%
    05:00 -4°C° 0 mm 1 mps 741 mmHg 80%
    06:00 -4°C° 0 mm 1 mps 741 mmHg 78%
    07:00 -4°C° 0 mm 1 mps 740 mmHg 77%
    08:00 -2°C° 0 mm 1 mps 740 mmHg 74%
    09:00 -1°C° 0 mm 1 mps 740 mmHg 72%
    10:00 0°C° 0 mm 1 mps 740 mmHg 70%
    11:00 +2°C° 0 mm 1 mps 740 mmHg 70%
    12:00 +3°C° 0 mm 1 mps 739 mmHg 70%
    13:00 +4°C° 0 mm 1 mps 739 mmHg 70%
    14:00 +3°C° 0 mm 1 mps 738 mmHg 71%
    15:00 +3°C° 0 mm 1 mps 738 mmHg 73%
    16:00 +2°C° 0 mm 1 mps 738 mmHg 74%
    17:00 +3°C° 0.1 mm 1 mps 738 mmHg 75%
    18:00 +3°C° 0.1 mm 1 mps 738 mmHg 76%
    19:00 +3°C° 0.1 mm 1 mps 738 mmHg 77%
    20:00 +4°C° 0.1 mm 1 mps 738 mmHg 78%
    21:00 +4°C° 0.1 mm 1 mps 737 mmHg 79%
    22:00 +4°C° 0.1 mm 1 mps 737 mmHg 80%
    23:00 +4°C° 0.1 mm 1 mps 737 mmHg 81%
    Show more